SCP
0 0 0 0 0 0 0 0 0 0 0 0 0 0 0 0 0 0 0 0 0 0 0 0 0 0 0 0 0 0 0 0 0 0 0 0 0 0 0 0 0 0 0
0 0 0 0 0 0 0 0 0 0 0 0 0 0 0 0 0 0 0 0 0 0 0 0 0 0 0 0 0 0 0 0 0 0 0 0 0 0 0 0 0 0 0
0 0 0 0 0 0 0 0 0 0 0 0 0 0 0 0 0 0 0 0 0 0 0 0 0 0 0 0 0 0 0 0 0 0 0 0 0 0 0 0 0 0 0
0 0 0 0 0 0 0 0 0 0 0 0 0 0 0 0 0 0 0 0 0 0 0 0 0 0 0 0 0 0 0 0 0 0 0 0 0 0 0 0 0 0 0
0 0 0 0 0 0 0 0 0 0 0 0 0 0 0 0 0 0 0 0 0 0 0 0 0 0 0 0 0 0 0 0 0 0 0 0 0 0 0 0 0 0 0
0 0 0 0 0 0 0 0 0 0 0 0 0 0 0 0 0 0 0 0 0 0 0 0 0 0 0 0 -0 -0 0 0 0 0 0 0 0 0 0 0 0 0 0
0 0 0 0 0 0 0 0 0 0 0 0 0 0 0 0 0 0 0 0 0 0 0 0 0 0 0 -0 -0 -0 0 0 0 0 0 0 0 0 0 0 0 0 0
0 0 0 0 0 0 0 0 0 0 0 0 0 0 0 0 0 0 0 0 0 0 0 0 0 0 0 0 0 0 0 0 0 0 0 0 0 0 0 0 0 0 0
0 0 0 0 0 0 0 0 0 0 0 0 0 0 0 0 0 0 0 0 0 0 0 0 0 0 0 0 0 0 0 0 0 0 0 0 0 0 0 0 0 0 0
0 0 0 0 0 0 0 0 0 0 0 0 0 0 0 0 0 0 0 0 0 0 0 0 0 0 0 0 0 0 0 0 0 0 0 0 0 0 0 0 0 0 0
0 0 0 0 0 0 0 0 0 0 0 0 0 0 0 0 0 0 0 0 0 0 0 0 0 0 0 0 0 0 0 0 0 0 0 0 0 0 0 0 0 0 0
0 0 0 0 0 0 0 0 0 0 0 0 0 0 0 0 0 0 0 0 0 0 0 0 0 0 0 0 0 0 0 0 0 0 0 0 0 0 0 0 0 0 0
0 0 0 0 0 0 0 0 0 0 0 0 0 0 0 0 0 0 0 0 0 0 0 0 0 0 0 0 0 0 0 0 0 0 0 0 0 0 0 0 0 0 0
0 0 0 0 0 0 0 0 0 0 0 0 0 0 0 0 0 0 0 0 0 0 0 0 0 0 0 0 0 0 0 0 0 0 0 0 0 0 0 0 0 0 0
0 0 0 0 0 0 0 0 0 0 0 0 0 0 0 0 0 0 0 0 0 0 0 0 0 0 0 0 0 0 0 0 0 0 0 0 0 0 0 0 0 0 0
0 0 0 0 0 0 0 0 0 0 0 0 0 0 0 0 0 0 0 0 0 0 0 0 0 0 0 0 0 0 0 0 0 0 0 0 0 0 0 0 0 0 0
0 0 0 0 0 0 0 0 0 0 0 0 0 0 0 0 0 0 0 0 0 0 0 0 0 0 0 0 0 0 0 0 0 0 0 0 0 0 0 0 0 0 0
0 0 0 0 0 0 0 0 0 0 0 0 0 0 0 0 0 0 0 0 0 0 0 0 0 0 0 0 0 0 0 0 0 0 0 0 0 0 0 0 0 0 0
0 0 0 0 0 0 0 0 0 0 0 0 0 0 0 0 0 0 0 0 0 0 0 0 0 0 0 0 0 0 0 0 0 0 0 0 0 0 0 0 0 0 0
0 0 0 0 0 0 0 0 0 0 0 0 0 0 0 0 0 0 0 0 0 0 0 0 0 0 0 0 0 0 0 0 0 0 0 0 0 0 0 0 0 0 0
0 0 0 0 0 0 0 0 0 0 0 0 0 0 0 0 0 0 0 0 0 0 0 0 0 0 0 0 0 0 0 0 0 0 0 0 0 0 0 0 0 0 0
0 0 0 0 0 0 0 0 0 0 0 0 0 0 0 0 0 0 0 0 0 0 0 0 0 0 0 0 0 0 0 0 0 0 0 0 0 0 0 0 0 0 0
0 0 0 0 0 0 0 0 0 0 0 0 0 0 0 0 0 0 0 0 0 0 0 0 0 0 0 0 0 0 0 0 0 0 0 0 0 0 0 0 0 0 0
0 0 0 0 0 0 0 0 0 0 0 0 0 0 0 0 0 0 0 0 0 0 0 0 0 0 0 0 0 0 0 0 0 0 0 0 0 0 0 0 0 0 0
0 0 0 0 0 0 0 0 0 0 0 0 0 0 0 0 0 0 0 0 0 0 0 0 0 -0 -0 -0 0 0 0 0 0 0 0 0 0 0 0 0 0 0 0
0 0 0 0 0 0 0 0 0 0 0 0 0 0 0 0 -0 -0 0 0 0 0 0 0 0 0 0 0 0 0 0 0 0 0 0 0 0 0 0 0 0 0 0
Wind_Speed_500mb
22 22 22 23 25 26 26 27 28 26 24 22 20 20 19 18 18 17 21 16 14 13 11 11 15 15 18 20 24 25 27 29 30 32 32 29 28 28 27 26 32 30 31
24 24 24 24 25 26 26 26 25 24 22 19 20 20 20 20 18 15 15 13 11 9 10 7 10 14 18 22 24 26 28 29 31 29 28 25 26 28 29 26 29 31 33
25 24 24 25 26 26 25 25 24 22 20 19 19 19 19 19 16 14 15 14 12 9 2 4 11 15 17 20 24 27 29 31 29 29 29 27 27 28 29 30 30 30 31
28 28 27 27 26 25 25 25 24 21 19 19 19 20 20 18 16 14 17 16 13 8 4 6 13 17 21 25 27 29 31 32 33 33 33 32 31 30 28 33 30 32 32
32 31 30 29 28 27 27 26 26 24 21 20 21 21 20 19 18 13 13 13 14 8 5 9 16 21 27 31 33 33 33 33 35 36 37 37 37 37 37 37 37 36 36
37 35 34 32 29 28 28 28 27 26 24 22 21 22 22 21 23 22 6 16 18 15 9 14 24 33 34 37 38 37 37 37 38 39 40 40 42 44 45 43 41 39 39
40 38 36 34 31 29 28 28 26 25 24 23 22 19 24 24 26 28 34 17 18 22 23 21 28 36 41 45 42 40 39 38 40 42 42 43 45 48 49 48 45 42 43
42 40 39 37 34 30 27 25 22 21 22 21 17 17 9 20 21 31 32 27 29 23 30 33 39 42 46 46 46 44 42 42 42 42 45 47 49 50 52 52 50 47 45
43 42 40 37 35 32 28 26 24 22 19 22 18 12 8 7 13 20 23 28 31 35 32 38 47 52 50 49 49 47 46 44 44 43 47 51 52 53 54 54 53 50 48
42 41 39 38 37 35 33 31 30 28 26 21 25 21 22 28 11 13 20 25 36 40 42 49 50 50 51 51 49 45 44 45 45 47 50 51 52 53 55 56 56 52 49
44 45 43 43 40 38 36 33 32 30 29 27 26 25 27 28 29 30 28 32 29 35 41 45 59 51 51 52 48 47 47 45 47 52 53 54 53 54 55 56 58 58 54
45 46 44 43 40 37 34 33 31 30 29 30 30 30 31 25 21 25 33 39 45 53 49 49 58 54 52 50 48 44 44 49 54 53 51 53 54 55 55 57 59 61 57
45 44 41 40 38 36 35 34 33 33 34 34 35 36 35 38 39 41 42 48 47 51 47 46 57 53 49 51 45 48 55 55 54 53 52 53 54 55 56 58 61 63 60
43 43 39 38 36 35 35 36 36 37 37 37 39 39 42 42 42 43 45 44 50 49 46 44 33 44 51 54 53 58 56 53 55 55 54 54 54 55 57 60 63 65 62
44 40 37 36 36 36 36 36 37 38 39 39 40 41 43 43 44 45 46 47 45 43 44 36 32 34 40 51 62 63 67 63 62 55 52 53 52 53 57 60 65 65 62
42 39 37 35 34 35 35 36 36 36 38 37 37 39 40 40 43 45 47 49 49 50 55 39 38 44 52 53 60 67 67 65 66 61 56 55 53 53 57 62 65 59 62
43 39 37 35 34 34 35 36 37 37 39 38 38 40 40 40 44 44 45 48 52 53 61 59 62 62 61 63 58 64 68 67 67 63 60 59 55 54 58 61 55 58 63
43 40 38 37 35 35 36 36 36 36 39 41 42 44 45 45 47 46 48 51 53 53 56 61 53 58 63 60 62 63 65 67 67 56 58 57 55 56 56 50 59 61 62
43 40 38 38 38 38 37 38 41 43 45 46 46 47 48 49 52 52 52 54 54 56 54 62 63 61 66 63 66 63 63 62 63 59 57 56 56 52 49 60 59 56 54
38 38 45 51 42 41 41 40 42 43 43 44 44 43 44 46 49 50 53 55 57 61 61 62 61 62 61 63 59 59 62 52 63 65 65 60 45 50 59 60 57 51 49
56 55 50 46 44 44 41 38 39 42 45 45 45 46 46 48 48 52 56 58 59 61 60 55 56 56 55 49 50 50 54 64 67 71 65 59 54 67 61 58 53 47 51
50 50 53 48 44 43 39 39 41 46 48 50 50 49 50 51 51 52 54 57 58 58 61 58 61 58 59 55 57 60 66 66 66 66 53 75 75 73 64 60 52 42 50
56 57 57 50 49 46 40 42 45 50 53 52 53 54 56 55 55 58 57 60 60 58 59 61 68 69 69 66 65 71 74 74 79 77 78 88 66 69 66 56 43 54 53
61 60 55 50 50 49 45 45 47 52 57 58 57 57 57 53 49 58 62 63 62 58 58 57 56 59 61 57 54 56 60 66 70 71 59 68 69 72 62 61 52 46 38
61 57 50 49 49 49 45 44 47 53 58 60 59 58 56 56 53 55 62 62 61 60 57 53 51 50 51 51 50 55 60 66 76 66 60 63 68 62 72 60 31 25 33
54 48 49 47 47 48 43 44 44 52 59 60 60 63 61 58 57 55 57 57 59 61 57 58 57 56 53 52 51 52 55 62 66 59 44 39 55 60 41 50 19 60 54
Wind_Direction_500mb
282 291 299 305 310 314 318 318 317 316 313 312 310 308 302 296 291 283 280 278 269 255 276 302 314 330 337 336 334 331 327 324 321 320 317 313 310 308 308 311 303 307 298
283 289 298 305 309 314 316 314 313 310 308 308 305 302 298 294 286 272 267 260 261 263 284 312 344 347 346 344 342 337 332 328 324 322 320 319 316 313 316 311 311 312 308
277 285 292 299 303 306 308 311 310 305 303 303 300 297 292 286 272 255 241 253 253 260 270 358 2 359 359 353 347 340 333 329 322 318 314 312 310 313 317 315 312 310 304
277 282 287 290 293 299 303 305 303 299 295 293 293 290 287 274 254 235 243 240 234 222 204 10 359 354 349 347 344 340 334 329 325 320 317 315 311 311 315 314 313 317 315
269 273 278 282 290 297 302 304 302 299 294 294 294 290 282 270 235 235 227 225 209 210 277 301 340 346 344 343 341 338 332 326 320 316 313 310 308 307 305 304 307 306 306
268 270 274 280 287 292 298 302 304 302 297 291 291 285 278 268 245 232 259 237 229 236 311 316 334 338 337 334 333 330 325 321 315 312 309 308 308 307 306 306 307 306 305
267 269 273 277 280 285 292 299 304 303 297 293 297 299 291 275 256 245 241 264 254 259 264 320 315 328 327 326 324 322 319 315 311 308 306 306 306 306 306 306 306 305 303
266 266 267 270 274 279 284 291 300 305 300 296 288 298 292 286 270 255 249 260 254 281 270 288 312 312 316 316 315 314 312 310 308 306 304 304 305 305 305 304 304 303 302
266 264 265 266 270 274 278 284 290 295 295 296 289 265 281 259 283 276 261 270 255 283 275 284 299 305 309 311 309 309 310 309 306 306 306 305 304 304 304 303 302 302 301
265 263 263 265 268 271 274 277 280 281 281 278 282 278 254 258 270 281 267 292 286 282 280 285 292 300 305 307 305 305 304 304 302 305 305 304 303 303 302 302 301 301 300
265 263 263 265 267 270 274 276 278 280 279 276 269 264 277 273 266 255 275 269 259 274 290 290 294 299 305 304 304 304 305 301 301 304 303 302 301 301 301 301 300 300 299
266 264 264 266 269 270 273 276 278 279 280 280 279 274 270 260 256 263 267 273 276 276 286 286 294 299 302 298 301 301 300 301 301 301 300 299 299 301 301 300 300 299 299
263 263 263 263 264 267 272 275 278 281 283 283 282 281 275 274 272 268 269 274 279 284 288 283 294 298 300 300 298 296 300 302 301 298 299 300 299 300 300 300 300 299 300
260 261 262 265 268 274 277 279 281 282 282 281 280 278 278 277 276 275 275 277 284 283 284 284 285 283 296 299 300 302 301 303 305 305 301 297 297 299 300 300 300 299 300
260 261 263 267 272 277 281 284 284 284 283 282 282 280 280 281 279 277 276 275 273 283 285 284 273 269 286 295 300 300 298 301 301 304 301 296 296 298 298 299 299 300 299
261 264 267 271 275 278 280 282 284 285 286 287 287 286 285 286 282 281 281 280 275 271 274 274 268 265 272 288 292 295 299 300 301 305 304 302 298 299 299 299 299 298 295
263 266 270 273 276 278 282 284 286 287 288 289 289 289 290 289 285 286 285 281 279 277 271 277 279 285 287 290 292 291 293 293 294 300 301 301 299 300 301 300 303 299 297
261 264 269 273 278 282 284 286 287 287 288 289 290 290 292 292 291 291 288 284 281 278 273 279 282 286 290 293 294 290 290 293 293 298 297 297 299 302 302 305 304 300 295
259 264 269 274 278 281 282 286 288 289 289 289 290 291 292 291 290 291 290 286 284 282 275 277 282 286 289 294 296 295 294 294 293 298 298 299 301 299 303 309 308 302 297
262 276 284 278 277 280 282 285 285 287 289 291 294 295 295 294 293 292 290 289 288 286 285 284 284 288 291 297 294 294 300 297 297 300 304 304 300 294 311 312 308 299 294
285 274 265 271 276 279 281 282 282 287 289 292 295 298 299 297 296 293 293 292 289 287 289 287 284 286 288 291 290 293 288 297 297 302 305 303 302 306 311 312 307 297 299
269 273 272 276 279 279 282 282 286 288 290 292 294 296 297 298 298 297 294 294 290 286 284 283 279 282 286 289 292 292 294 296 298 301 299 300 305 306 310 313 303 289 298
274 273 270 275 279 281 283 286 288 289 290 292 294 297 297 299 299 299 298 294 289 287 280 278 277 276 279 282 284 284 282 284 286 288 292 296 302 304 312 313 308 299 290
271 268 271 274 276 279 284 286 287 287 289 291 294 295 295 298 300 299 298 294 291 289 288 285 283 285 282 286 286 287 290 293 292 294 298 290 301 306 308 311 307 297 297
270 268 270 271 276 283 284 284 285 286 289 292 295 294 294 296 299 297 296 294 293 291 291 293 294 291 287 285 284 285 280 282 289 288 285 288 297 304 310 316 310 305 310
262 263 269 275 279 286 291 288 286 288 289 294 295 294 294 296 296 295 293 294 291 293 295 293 292 290 286 282 284 278 279 284 288 290 291 285 298 306 315 311 292 309 312
Wind_Speed_850mb
22 22 22 23 25 26 26 27 28 26 24 22 20 20 19 18 18 17 21 16 14 13 11 11 15 15 18 20 24 25 27 29 30 32 32 29 28 28 27 26 32 30 31
24 24 24 24 25 26 26 26 25 24 22 19 20 20 20 20 18 15 15 13 11 9 10 7 10 14 18 22 24 26 28 29 31 29 28 25 26 28 29 26 29 31 33
25 24 24 25 26 26 25 25 24 22 20 19 19 19 19 19 16 14 15 14 12 9 2 4 11 15 17 20 24 27 29 31 29 29 29 27 27 28 29 30 30 30 31
28 28 27 27 26 25 25 25 24 21 19 19 19 20 20 18 16 14 17 16 13 8 4 6 13 17 21 25 27 29 31 32 33 33 33 32 31 30 28 33 30 32 32
32 31 30 29 28 27 27 26 26 24 21 20 21 21 20 19 18 13 13 13 14 8 5 9 16 21 27 31 33 33 33 33 35 36 37 37 37 37 37 37 37 36 36
37 35 34 32 29 28 28 28 27 26 24 22 21 22 22 21 23 22 6 16 18 15 9 14 24 33 34 37 38 37 37 37 38 39 40 40 42 44 45 43 41 39 39
40 38 36 34 31 29 28 28 26 25 24 23 22 19 24 24 26 28 34 17 18 22 23 21 28 36 41 45 42 40 39 38 40 42 42 43 45 48 49 48 45 42 43
42 40 39 37 34 30 27 25 22 21 22 21 17 17 9 20 21 31 32 27 29 23 30 33 39 42 46 46 46 44 42 42 42 42 45 47 49 50 52 52 50 47 45
43 42 40 37 35 32 28 26 24 22 19 22 18 12 8 7 13 20 23 28 31 35 32 38 47 52 50 49 49 47 46 44 44 43 47 51 52 53 54 54 53 50 48
42 41 39 38 37 35 33 31 30 28 26 21 25 21 22 28 11 13 20 25 36 40 42 49 50 50 51 51 49 45 44 45 45 47 50 51 52 53 55 56 56 52 49
44 45 43 43 40 38 36 33 32 30 29 27 26 25 27 28 29 30 28 32 29 35 41 45 59 51 51 52 48 47 47 45 47 52 53 54 53 54 55 56 58 58 54
45 46 44 43 40 37 34 33 31 30 29 30 30 30 31 25 21 25 33 39 45 53 49 49 58 54 52 50 48 44 44 49 54 53 51 53 54 55 55 57 59 61 57
45 44 41 40 38 36 35 34 33 33 34 34 35 36 35 38 39 41 42 48 47 51 47 46 57 53 49 51 45 48 55 55 54 53 52 53 54 55 56 58 61 63 60
43 43 39 38 36 35 35 36 36 37 37 37 39 39 42 42 42 43 45 44 50 49 46 44 33 44 51 54 53 58 56 53 55 55 54 54 54 55 57 60 63 65 62
44 40 37 36 36 36 36 36 37 38 39 39 40 41 43 43 44 45 46 47 45 43 44 36 32 34 40 51 62 63 67 63 62 55 52 53 52 53 57 60 65 65 62
42 39 37 35 34 35 35 36 36 36 38 37 37 39 40 40 43 45 47 49 49 50 55 39 38 44 52 53 60 67 67 65 66 61 56 55 53 53 57 62 65 59 62
43 39 37 35 34 34 35 36 37 37 39 38 38 40 40 40 44 44 45 48 52 53 61 59 62 62 61 63 58 64 68 67 67 63 60 59 55 54 58 61 55 58 63
43 40 38 37 35 35 36 36 36 36 39 41 42 44 45 45 47 46 48 51 53 53 56 61 53 58 63 60 62 63 65 67 67 56 58 57 55 56 56 50 59 61 62
43 40 38 38 38 38 37 38 41 43 45 46 46 47 48 49 52 52 52 54 54 56 54 62 63 61 66 63 66 63 63 62 63 59 57 56 56 52 49 60 59 56 54
38 38 45 51 42 41 41 40 42 43 43 44 44 43 44 46 49 50 53 55 57 61 61 62 61 62 61 63 59 59 62 52 63 65 65 60 45 50 59 60 57 51 49
56 55 50 46 44 44 41 38 39 42 45 45 45 46 46 48 48 52 56 58 59 61 60 55 56 56 55 49 50 50 54 64 67 71 65 59 54 67 61 58 53 47 51
50 50 53 48 44 43 39 39 41 46 48 50 50 49 50 51 51 52 54 57 58 58 61 58 61 58 59 55 57 60 66 66 66 66 53 75 75 73 64 60 52 42 50
56 57 57 50 49 46 40 42 45 50 53 52 53 54 56 55 55 58 57 60 60 58 59 61 68 69 69 66 65 71 74 74 79 77 78 88 66 69 66 56 43 54 53
61 60 55 50 50 49 45 45 47 52 57 58 57 57 57 53 49 58 62 63 62 58 58 57 56 59 61 57 54 56 60 66 70 71 59 68 69 72 62 61 52 46 38
61 57 50 49 49 49 45 44 47 53 58 60 59 58 56 56 53 55 62 62 61 60 57 53 51 50 51 51 50 55 60 66 76 66 60 63 68 62 72 60 31 25 33
54 48 49 47 47 48 43 44 44 52 59 60 60 63 61 58 57 55 57 57 59 61 57 58 57 56 53 52 51 52 55 62 66 59 44 39 55 60 41 50 19 60 54
Wind_Direction_850mb
282 291 299 305 310 314 318 318 317 316 313 312 310 308 302 296 291 283 280 278 269 255 276 302 314 330 337 336 334 331 327 324 321 320 317 313 310 308 308 311 303 307 298
283 289 298 305 309 314 316 314 313 310 308 308 305 302 298 294 286 272 267 260 261 263 284 312 344 347 346 344 342 337 332 328 324 322 320 319 316 313 316 311 311 312 308
277 285 292 299 303 306 308 311 310 305 303 303 300 297 292 286 272 255 241 253 253 260 270 358 2 359 359 353 347 340 333 329 322 318 314 312 310 313 317 315 312 310 304
277 282 287 290 293 299 303 305 303 299 295 293 293 290 287 274 254 235 243 240 234 222 204 10 359 354 349 347 344 340 334 329 325 320 317 315 311 311 315 314 313 317 315
269 273 278 282 290 297 302 304 302 299 294 294 294 290 282 270 235 235 227 225 209 210 277 301 340 346 344 343 341 338 332 326 320 316 313 310 308 307 305 304 307 306 306
268 270 274 280 287 292 298 302 304 302 297 291 291 285 278 268 245 232 259 237 229 236 311 316 334 338 337 334 333 330 325 321 315 312 309 308 308 307 306 306 307 306 305
267 269 273 277 280 285 292 299 304 303 297 293 297 299 291 275 256 245 241 264 254 259 264 320 315 328 327 326 324 322 319 315 311 308 306 306 306 306 306 306 306 305 303
266 266 267 270 274 279 284 291 300 305 300 296 288 298 292 286 270 255 249 260 254 281 270 288 312 312 316 316 315 314 312 310 308 306 304 304 305 305 305 304 304 303 302
266 264 265 266 270 274 278 284 290 295 295 296 289 265 281 259 283 276 261 270 255 283 275 284 299 305 309 311 309 309 310 309 306 306 306 305 304 304 304 303 302 302 301
265 263 263 265 268 271 274 277 280 281 281 278 282 278 254 258 270 281 267 292 286 282 280 285 292 300 305 307 305 305 304 304 302 305 305 304 303 303 302 302 301 301 300
265 263 263 265 267 270 274 276 278 280 279 276 269 264 277 273 266 255 275 269 259 274 290 290 294 299 305 304 304 304 305 301 301 304 303 302 301 301 301 301 300 300 299
266 264 264 266 269 270 273 276 278 279 280 280 279 274 270 260 256 263 267 273 276 276 286 286 294 299 302 298 301 301 300 301 301 301 300 299 299 301 301 300 300 299 299
263 263 263 263 264 267 272 275 278 281 283 283 282 281 275 274 272 268 269 274 279 284 288 283 294 298 300 300 298 296 300 302 301 298 299 300 299 300 300 300 300 299 300
260 261 262 265 268 274 277 279 281 282 282 281 280 278 278 277 276 275 275 277 284 283 284 284 285 283 296 299 300 302 301 303 305 305 301 297 297 299 300 300 300 299 300
260 261 263 267 272 277 281 284 284 284 283 282 282 280 280 281 279 277 276 275 273 283 285 284 273 269 286 295 300 300 298 301 301 304 301 296 296 298 298 299 299 300 299
261 264 267 271 275 278 280 282 284 285 286 287 287 286 285 286 282 281 281 280 275 271 274 274 268 265 272 288 292 295 299 300 301 305 304 302 298 299 299 299 299 298 295
263 266 270 273 276 278 282 284 286 287 288 289 289 289 290 289 285 286 285 281 279 277 271 277 279 285 287 290 292 291 293 293 294 300 301 301 299 300 301 300 303 299 297
261 264 269 273 278 282 284 286 287 287 288 289 290 290 292 292 291 291 288 284 281 278 273 279 282 286 290 293 294 290 290 293 293 298 297 297 299 302 302 305 304 300 295
259 264 269 274 278 281 282 286 288 289 289 289 290 291 292 291 290 291 290 286 284 282 275 277 282 286 289 294 296 295 294 294 293 298 298 299 301 299 303 309 308 302 297
262 276 284 278 277 280 282 285 285 287 289 291 294 295 295 294 293 292 290 289 288 286 285 284 284 288 291 297 294 294 300 297 297 300 304 304 300 294 311 312 308 299 294
285 274 265 271 276 279 281 282 282 287 289 292 295 298 299 297 296 293 293 292 289 287 289 287 284 286 288 291 290 293 288 297 297 302 305 303 302 306 311 312 307 297 299
269 273 272 276 279 279 282 282 286 288 290 292 294 296 297 298 298 297 294 294 290 286 284 283 279 282 286 289 292 292 294 296 298 301 299 300 305 306 310 313 303 289 298
274 273 270 275 279 281 283 286 288 289 290 292 294 297 297 299 299 299 298 294 289 287 280 278 277 276 279 282 284 284 282 284 286 288 292 296 302 304 312 313 308 299 290
271 268 271 274 276 279 284 286 287 287 289 291 294 295 295 298 300 299 298 294 291 289 288 285 283 285 282 286 286 287 290 293 292 294 298 290 301 306 308 311 307 297 297
270 268 270 271 276 283 284 284 285 286 289 292 295 294 294 296 299 297 296 294 293 291 291 293 294 291 287 285 284 285 280 282 289 288 285 288 297 304 310 316 310 305 310
262 263 269 275 279 286 291 288 286 288 289 294 295 294 294 296 296 295 293 294 291 293 295 293 292 290 286 282 284 278 279 284 288 290 291 285 298 306 315 311 292 309 312